Find Starlink 5401

NORAD ID: 54870 Int'l Des: 2022-177 Owner: SPXS Country: US Constellation: starlink operational
LEOCIRCULAR

リアルタイム位置

3D地球を読み込み中...

Starlink 5401について

説明を読み込み中...

次回通過

Passes for default location (London). Set your location on the main map for personalized predictions.

高度履歴

Loading altitude history...

軌道要素

1 54870U 22177BC 26120.59194229 .00001509 00000-0 65911-4 0 9996
2 54870 43.0024 188.0102 0001639 266.3160 93.7504 15.26741688185035
Epoch: Apr 30, 2026 • Age: 27 hours

現在のステータス

高度 491.0 km
速度 7.62 km/s
衛星直下点 -25.27°S, 40.96°E
打ち上げ日 Dec 28, 2022
運用期間 3.3 years
タイプ internet

技術仕様

分類 Payload
質量 305.00 kg
乾燥質量 290.00 kg
総質量 305.00 kg
長さ 0.20 m
直径 2.80 m
スパン 9.00 m
形状 Box + pan
製造者 SPXS
バスタイプ Starlink
フェーズステータス In Orbit
所有者/国 SPXS/US

Most Searched